Location: Unspecified
(49.2170°N, 0.0000°E)
Time: 10:46:01
(UTC+00:00)

Vanguard 2 Rocket - Pass Details

Date: 28 January 2021
Orbit: 554 x 3326 km, 32.9° (Epoch: 25 February)

Event Time Altitude Azimuth Distance (km) Brightness Sun altitude
Rises 18:19:37 0° 264° (W) 5,639 12.9 -14.6°
Reaches altitude 10° 18:25:20 10° 249° (WSW) 4,032 11.5 -15.5°
Maximum altitude 18:31:19 18° 212° (SSW) 2,795 9.9 -16.5°
Drops below altitude 10° 18:35:45 10° 172° (S) 2,837 9.4 -17.2°
Sets 18:38:50 0° 152° (SSE) 3,445 9.7 -17.7°
